Погода в Лесной Даче

Россия / Ставропольский край     45°48′06″N   42°13′28″E
темп.,
°C
ветер,
м/с
пор.,
м/с
влажн.,
%
обл.,
%
осадки,
мм/ч
давл.,
гПа
погр.,
м
13 мая, чт
чт1300:00+12в47800 0.0 1014118
03:00+11вюв33850 0.0 101340
06:00+12вюв37790 0.0 1014134
09:00+19юв45620 0.0 1014528
12:00+23вюв44531 0.0 1014932
15:00+25в45495 0.0 10131019
18:00+23в366863 0.0 1013129
21:00+17вюв4878100 0.0 1014105
14 мая, пт
пт1400:00+16вюв477015 0.0 101393
03:00+14вюв4871100 0.0 1013102
06:00+15вюв48795 0.0 1013139
09:00+22вюв57640 0.0 1012433
12:00+27вюв55525 0.0 1012807
15:00+28вюв56500 0.0 1011992
18:00+25вюв48670 0.0 1011195
21:00+20вюв457114 0.0 101149
15 мая, сб
сб1500:00+18вюв5116076 0.0 1011185
03:00+15вюв3667100 0.0 101175
06:00+16ююв227844 0.0 101257
09:00+23з45745 0.0 1013576
12:00+26ссз33600 0.0 1013863
15:00+27с23541 0.0 10121018
18:00+25с34675 0.0 1012108
21:00+20ссз2275100 0.0 101219
16 мая, вс
вс1600:00+18св2272100 0.0 101112
03:00+17вюв3473100 0.0 101160
06:00+15вюв496593 0.0 1011168
09:00+21вюв67575 0.0 1010460
12:00+25вюв67465 0.0 1009883
15:00+29вюв59445 0.0 10071377
18:00+25вюв512535 0.0 1006300
21:00+21в71645100 0.0 1007412
17 мая, пн
пн1700:00+18в61548100 0.0 1006395
03:00+16в513535 0.0 1006322
06:00+15в51369100 0.0 1006305
09:00+21вюв71055100 0.0 1006576
12:00+26юв6847100 0.0 1006913
15:00+29юв58415 0.0 10051437
18:00+26юз2262100 0.0 100619
21:00+21зсз228098 0.0 100817